Regional Weather Roundup
Issued by NWS Little Rock, AR

Home | Current Version | Previous Version | Text Only | Print | Product List | Glossary On
Versions: 1 2 3 4 5 6 7 8 9 10 11 12 13 14 15 16 17 18 19 20 21 22 23 24 25 26 27 28 29 30 31 32 33 34 35 36 37 38 39 40 41 42 43 44 45 46 47 48 49 50
000
ASUS44 KLZK 252205
RWRLZK

WEATHER ROUNDUP FOR ARKANSAS
NATIONAL WEATHER SERVICE LITTLE ROCK AR
500 PM CDT FRI MAY 25 2018

NOTE: "FAIR" INDICATES FEW OR NO CLOUDS BELOW 12,000 FEET WITH NO
SIGNIFICANT WEATHER AND/OR OBSTRUCTIONS TO VISIBILITY.

ARZ001-003-010-029-252300-
NORTHWEST ARKANSAS

CITY           SKY/WX    TMP DP  RH WIND       PRES   REMARKS
FAYETTEVILLE   CLOUDY    69  66  90 SE3       29.88F
FORT SMITH     PTSUNNY   89  68  49 SW8       29.82F HX  93
HARRISON       MOSUNNY   86  66  51 VRB7      29.86F HX  88
BENTONVILLE    CLOUDY    81  68  64 S10       29.89F
ROGERS         CLOUDY    81  68  64 S12       29.88F
SILOAM SPGS    CLOUDY    84  71  65 S6        29.88F HX  89
HIGHFILL       CLOUDY    83  69  62 S10       29.88F HX  86
SPRINGDALE     MOSUNNY   75  64  69 S7        29.91S
$$

ARZ004-005-016-252300-
NORTH CENTRAL ARKANSAS

CITY           SKY/WX    TMP DP  RH WIND       PRES   REMARKS
BATESVILLE     TSTM      72  68  88 S3        29.89F
FLIPPIN        CLOUDY    83  74  74 SE6       29.84F HX  89
MTN HOME       CLOUDY    80  70  71 S8        29.84F
$$

ARZ040-041-252300-
WEST CENTRAL ARKANSAS

CITY           SKY/WX    TMP DP  RH WIND       PRES   REMARKS
MENA           MOSUNNY   86  63  45 SW9       29.88F HX  87
MOUNT IDA      MOSUNNY   88  70  55 VRB5      29.85F HX  93
$$

ARZ009-017-025-026-028-252300-
NORTHEAST ARKANSAS

CITY           SKY/WX    TMP DP  RH WIND       PRES   REMARKS
CORNING        FAIR      79  73  83 S6        29.88F
JONESBORO      FAIR      77  74  90 E6        29.88F
NEWPORT        FAIR      83  72  69 E13       29.87  HX  88
WALNUT RIDGE     N/A     77  71  82 SE7       29.87F
BLYTHEVILLE    FAIR      79  66  64 NW10G23   29.89S
$$

ARZ022-023-033-042-044-252300-
CENTRAL ARKANSAS

CITY           SKY/WX    TMP DP  RH WIND       PRES   REMARKS
LITTLE ROCK    CLOUDY    76  72  87 S6        29.87F
N LITTLE ROCK    N/A     76  69  79 S3        29.83F
JACKSONVILLE   CLOUDY    77  72  83 CALM      29.86F
CONWAY           N/A     81  72  74 S7        29.85F
SEARCY         FAIR      85  72  65 S7        29.87F HX  91
HOT SPRINGS    PTSUNNY   84  70  62 NW3       29.87F THUNDER HX  88
RUSSELLVILLE   CLOUDY    85  70  60 SE7       29.83F HX  89
CLINTON        FAIR      84  72  65 SE7       29.85F THUNDER HX  89
$$

ARZ036-252300-
EAST ARKANSAS

CITY           SKY/WX    TMP DP  RH WIND       PRES   REMARKS
WEST MEMPHIS   LGT RAIN  74  71  91 W3        29.88F
$$

ARZ050-053-066-070-073-252300-
SOUTHWEST ARKANSAS

CITY           SKY/WX    TMP DP  RH WIND       PRES   REMARKS
ARKADELPHIA    FAIR      90  72  55 SW7       29.84F HX  97
CAMDEN         FAIR      81  68  65 CALM      29.86S
TEXARKANA      CLOUDY    82  67  60 SW8       29.87F
EL DORADO      FAIR      90  71  53 SW7       29.87F HX  96
DE QUEEN       CLOUDY    78  67  68 W7        29.85F
$$

ARZ056-057-069-252300-
SOUTHEAST ARKANSAS

CITY           SKY/WX    TMP DP  RH WIND       PRES   REMARKS
PINE BLUFF     FAIR      75  70  84 SE8       29.89S
STUTTGART      FAIR      79  70  74 SE9       29.89S

$$





USA.gov is the U.S. government's official web portal to all federal, state and local government web resources and services.